Tracking 30923 objects as of 1-Jul-2025
HD Live streaming from Space Station
objects crossing your sky now

COSMOS 2251 DEB

Track COSMOS 2251 DEB now!
10-day predictions


NORAD ID: 36073
Int'l Code: 1993-036AYL
Perigee: 765.4 km
Apogee: 801.0 km
Inclination: 74.0 °
Period: 100.4 minutes
Semi major axis: 7154 km
RCS: 0.011 m2 (small)
Launch date: June 16, 1993
Source: Commonwealth of Independent States (former USSR) (CIS)
Launch site: PLESETSK MISSILE AND SPACE COMPLEX (PKMTR)

Note: This is SATELLITE DEBRIS
Your satellite tracking list
USA 7
Track 1 satellite(s)




NASA's NSSDC Master Catalog

Two Line Element Set (TLE):
1 36073U 93036AYL 25179.52977891  .00000278  00000-0  10701-3 0  9991
2 36073  74.0320 269.0014 0024858  18.4492 341.7555 14.34701831678096
Source of the keplerian elements: AFSPC